This demonstration page uses our WeatherBlox Daily Observations layout. Learn more.

Left ArrowRight Arrow

39.08367, -84.50855

Hourly Observations for December 23, 2020

Temp ( °F °C ) Dew Point ( °F °C ) Humidity (%) Winds ( mph kmh ) Pressure ( in mb ) Visibility ( mi km ) Precip ( " mm )
12:53 am 00:53 Clear with Mist and Fog 26 -3.3 24 -4.4 92 92 N N/A 30.25 1024 6 10 N/A
1:53 am 01:53 Clear 26 -3.3 24 -4.4 92 92 N N/A 30.23 1024 10 16 N/A
2:53 am 02:53 Clear 27 -2.8 25 -3.9 92 92 N N/A 30.22 1023 8 13 N/A
3:53 am 03:53 Clear with Mist and Fog 26 -3.3 24 -4.4 92 92 N N/A 30.20 1023 6 10 N/A
4:53 am 04:53 Clear 26 -3.3 24 -4.4 92 92 N N/A 30.16 1021 10 16 N/A
5:53 am 05:53 Clear 28 -2.2 25 -3.9 88 88 WSW 6 9 30.14 1021 10 16 N/A
6:53 am 06:53 Clear 31 -0.6 27 -2.8 85 85 VRB 3 6 30.14 1021 10 16 N/A
7:53 am 07:53 Clear 31 -0.6 26 -3.3 82 82 WSW 5 7 30.14 1021 10 16 N/A
8:53 am 08:53 Sunny 34 1.1 27 -2.8 76 76 SSW 5 7 30.11 1020 10 16 N/A
9:53 am 09:53 Sunny 41 5 30 -1.1 65 65 SSW 9 15 30.10 1019 10 16 N/A
10:53 am 10:53 Sunny 48 8.9 28 -2.2 46 46 S 14 22 30.06 1018 10 16 N/A
11:53 am 11:53 Sunny 53 11.7 28 -2.2 38 38 S 13 20 30.01 1016 10 16 N/A
12:53 pm 12:53 Sunny 57 13.9 29 -1.7 34 34 S 18 30 29.96 1015 10 16 N/A
1:53 pm 13:53 Sunny 55 12.8 28 -2.2 35 35 S 15 24 29.92 1013 10 16 N/A
2:53 pm 14:53 Cloudy 57 13.9 28 -2.2 33 33 S 12 19 29.89 1012 10 16 N/A
3:53 pm 15:53 Mostly Cloudy 57 13.9 30 -1.1 36 36 S 13 20 29.88 1012 10 16 N/A
4:53 pm 16:53 Mostly Cloudy with Light Rain 57 13.9 28 -2.2 33 33 S 8 13 29.86 1011 10 16 0.00 0.00
5:53 pm 17:53 Cloudy 56 13.3 27 -2.8 33 33 S 15 24 29.84 1011 10 16 0.00 0.00
6:53 pm 18:53 Cloudy 56 13.3 27 -2.8 33 33 S 16 26 29.83 1010 10 16 N/A
7:53 pm 19:53 Cloudy 57 13.9 28 -2.2 33 33 S 20 31 29.80 1009 10 16 N/A
8:53 pm 20:53 Cloudy with Light Rain 54 12.2 34 1.1 47 47 S 15 24 29.80 1009 10 16 0.00 0.00
9:53 pm 21:53 Cloudy with Light Rain 50 10 37 2.8 61 61 S 10 17 29.77 1008 10 16 0.01 0.25
10:53 pm 22:53 Cloudy 51 10.6 37 2.8 59 59 S 12 19 29.74 1007 10 16 0.01 0.25
11:53 pm 23:53 Cloudy with Light Rain 51 10.6 40 4.4 66 66 S 16 26 29.73 1007 10 16 0.01 0.25

Powered by AerisWeather